Location: Charleville
(26.4021°S, 146.2454°E)
Time: 03:06:51
(UTC+10:00)

Hubble Space Telescope - Visible Passes

Search period start: 04 October 2022 00:00
Search period end: 14 October 2022 00:00
Orbit: 531 x 535 km, 28.5° (Epoch: 03 October)

Date Brightness Start Highest point End Pass type
(mag) Time Alt. Az. Time Alt. Az. Time Alt. Az.
04 Oct 2.7 03:38:08 29° ESE 03:38:08 29° ESE 03:40:16 10° ESE visible
04 Oct 1.0 05:13:22 11° W 05:17:20 66° S 05:21:28 10° E visible
05 Oct 3.2 03:26:31 21° ESE 03:26:31 21° ESE 03:28:02 10° ESE visible
05 Oct 0.9 05:01:44 15° WSW 05:05:07 70° S 05:09:16 10° E visible
06 Oct 3.6 03:14:55 16° ESE 03:14:55 16° ESE 03:15:47 10° ESE visible
06 Oct 0.8 04:50:08 20° WSW 04:52:54 75° S 04:57:02 10° E visible
07 Oct 4.0 03:03:21 11° E 03:03:21 11° E 03:03:32 10° E visible
07 Oct 0.7 04:38:34 29° WSW 04:40:38 83° S 04:44:47 10° E visible
08 Oct 0.7 04:27:04 43° W 04:28:23 88° NNW 04:32:31 10° ENE visible
09 Oct 0.6 04:15:38 66° WNW 04:16:06 77° NNW 04:20:14 10° ENE visible
10 Oct 1.0 04:04:17 58° NNE 04:04:17 58° NNE 04:07:54 10° ENE visible
11 Oct 2.0 03:53:03 33° NE 03:53:03 33° NE 03:55:31 10° ENE visible
12 Oct 3.0 03:41:55 18° NE 03:41:55 18° NE 03:43:05 10° NE visible
12 Oct 2.9 05:18:17 10° NW 05:19:50 12° NNW 05:21:23 10° N visible
